Home > Weather > Kopervik > Past weeks

Flag for Norway Weather for the Past 2 Weeks in Kopervik, Norway

Now
45 °F

Partly sunny.


Feels Like: 41 °F
Forecast: 43 / 49 °F
Wind: 7 mph from South

Location: Karmoy

Current Time: May 3, 2016 at 7:31:37 AM

Latest Report: May 3, 2016 at 6:50 AM


Visibility: 4 mi

Pressure: 29.83 "Hg

Humidity: 100%

Dew Point: 45 °F

Location of KopervikLocation

Historic Weather in Kopervik — Graph

°F

Kopervik Temperature Yesterday

Maximum temperature yesterday: 46 °F (at 10:50 AM)
Minimum temperature yesterday: 43 °F (at 3:20 AM)
Average temperature yesterday: 45 °F

High & Low Weather Summary for the Past Weeks

 TemperatureHumidityPressure
High54 °F (Apr 26, 3:20 PM)100% (Apr 23, 7:50 AM)30.39 "Hg (Apr 23, 7:50 AM)
Low28 °F (Apr 25, 5:20 AM)20% (Apr 26, 2:50 PM)29.50 "Hg (Apr 18, 4:20 PM)
Average43 °F74%29.91 "Hg
* Reported Apr 18 5:50 AM — May 3 5:50 AM, Kopervik, Weather by CustomWeather, © 2016

Note: Actual official high and low records may vary slightly from our data, if they occured in-between our weather recording intervals... More about our weather records

Advertising

Kopervik Weather History for the Previous 24 Hours

Scroll right to see more
 ConditionsComfort  
Time TempWeatherWind HumidityBarometerVisibility
5:50 AM
Tue, May 3
45 °FPassing clouds.8 mph100%29.80 "Hg6 mi
5:20 AM45 °FLow clouds.7 mph100%29.83 "Hg6 mi
4:50 AM46 °FMostly cloudy.8 mph93%29.83 "Hg5 mi
4:20 AM46 °FLow clouds.8 mph93%29.83 "Hg6 mi
3:20 AM46 °FLow clouds.7 mph93%29.83 "Hg5 mi
2:50 AM46 °FLow clouds.8 mph93%29.83 "HgN/A
2:20 AM46 °FLow clouds.8 mph93%29.83 "HgN/A
1:50 AM46 °FLow clouds.10 mph93%29.83 "HgN/A
1:20 AM46 °FMostly cloudy.12 mph93%29.83 "HgN/A
12:50 AM46 °FMostly cloudy.12 mph93%29.83 "HgN/A
11:50 PM
Mon, May 2
46 °FLight rain. Low clouds.15 mph93%29.83 "Hg4 mi
11:20 PM46 °FRain. Low clouds.14 mph93%29.83 "HgN/A
10:50 PM46 °FRain. Low clouds.15 mph100%29.83 "Hg5 mi
10:20 PM46 °FRain. Mostly cloudy.20 mph93%29.83 "Hg5 mi
9:50 PM46 °FRain. Mostly cloudy.17 mph93%29.83 "Hg4 mi
9:20 PM46 °FRain. Mostly cloudy.21 mph93%29.80 "Hg5 mi
8:50 PM46 °FLight rain. Mostly cloudy.23 mph93%29.80 "Hg5 mi
8:20 PM46 °FRain. Low clouds.22 mph93%29.80 "Hg5 mi
7:50 PM46 °FRain. Mostly cloudy.23 mph93%29.80 "Hg4 mi
7:20 PM46 °FRain. Low clouds.23 mph93%29.80 "Hg4 mi
6:50 PM46 °FRain. Low clouds.26 mph93%29.83 "Hg4 mi
6:20 PM46 °FLight rain. Broken clouds.26 mph93%29.83 "Hg4 mi
5:50 PM46 °FScattered showers. Broken clouds.24 mph87%29.83 "Hg6 mi
5:20 PM46 °FDrizzle. Broken clouds.28 mph87%29.86 "Hg4 mi
4:50 PM46 °FLight rain. Overcast.26 mph87%29.86 "HgN/A
4:20 PM46 °FPartly sunny.30 mph87%29.86 "HgN/A
3:50 PM46 °FPartly sunny.30 mph87%29.89 "HgN/A
3:20 PM46 °FPartly sunny.30 mph87%29.89 "HgN/A
2:50 PM46 °FPartly sunny.31 mph87%29.89 "HgN/A
2:20 PM46 °FPartly sunny.29 mph87%29.89 "HgN/A
1:50 PM46 °FLight rain. Broken clouds.31 mph87%29.89 "Hg4 mi
1:20 PM46 °FDrizzle. Partly sunny.30 mph93%29.89 "Hg3 mi
12:50 PM46 °FDrizzle. Partly sunny.29 mph93%29.89 "Hg3 mi
12:20 PM46 °FLight rain. Partly sunny.30 mph93%29.89 "Hg4 mi
11:50 AM46 °FDrizzle. Partly sunny.31 mph87%29.92 "HgN/A
11:20 AM46 °FLight rain. Partly sunny.31 mph87%29.92 "HgN/A
10:50 AM46 °FDrizzle. Partly sunny.29 mph87%29.92 "HgN/A
10:20 AM45 °FRain. Partly sunny.30 mph93%29.92 "Hg3 mi
9:50 AM45 °FRain. Partly sunny.30 mph93%29.95 "Hg3 mi
9:20 AM45 °FRain. Partly sunny.29 mph93%29.95 "Hg3 mi
8:50 AM45 °FRain. Broken clouds.28 mph93%29.95 "Hg3 mi
8:20 AM45 °FLight rain. Low clouds.23 mph93%29.95 "Hg5 mi
Weather by CustomWeather, © 2016

See weather overviewHow to use our weather pages